Jackson, WY

7:40 PM MST on December 14, 2019 (GMT -0700)
Jackson Hole

Weather History for KJAC - October, 2019

Change the Weather History Date:

Wednesday, October 16, 2019

  Actual Average Record
Temperature  
Mean Temperature 46 °F -  
Max Temperature 68 °F 53 °F 71 °F (1991)
Min Temperature 24 °F 22 °F 9 °F (1984)
Degree Days  
Heating Degree Days 19    
Moisture  
Dew Point 18 °F    
Average Humidity 48    
Maximum Humidity 88    
Minimum Humidity 12    
Precipitation  
Precipitation 0.00 in - - ()
Sea Level Pressure  
Sea Level Pressure 30.18 in    
Wind  
Wind Speed 6 mph ()    
Max Wind Speed 20 mph    
Max Gust Speed 25 mph    
Visibility 10.0 miles    
Events      
Averages and records for this station are not official NWS values.
T = Trace of Precipitation, MM = Missing Value Source: Averaged Metar Reports

Daily Weather History Graph

Daily Weather History Graph

Search for Another Location

Airport or City:

Astronomy

Oct. 16, 2019 Rise Set
Actual Time 7:38 AM MDT 6:38 PM MDT
Civil Twilight 7:09 AM MDT 7:07 PM MDT
Nautical Twilight 6:35 AM MDT 7:40 PM MDT
Astronomical Twilight 6:02 AM MDT 8:13 PM MDT
Moon 8:29 PM MDT (10/16) 10:16 AM MDT (10/16)
Length of Visible Light 11h 57m
Length of Day
10h 59m
Waning Gibbous, 92% of the Moon is Illuminated
Oct 16
Waning Gibbous
Oct 21
Last Quarter
Oct 27
New
Nov 4
First Quarter
Nov 12
Full

Hourly Weather History & Observations

Time (MDT) Temp. Windchill Dew Point Humidity Pressure Visibility Wind Dir Wind Speed Gust Speed Precip Events Conditions
12:56 AM 30.0 °F 25.2 °F 23.0 °F 75% 30.28 in 10.0 mi NNE 4.6 mph - N/A   Clear
1:56 AM 26.1 °F 19.4 °F 21.0 °F 81% 30.28 in 10.0 mi NNE 5.8 mph - N/A   Clear
2:56 AM 27.0 °F 18.7 °F 21.9 °F 81% 30.27 in 10.0 mi North 8.1 mph - N/A   Clear
3:56 AM 26.1 °F 17.6 °F 21.9 °F 84% 30.27 in 10.0 mi NNE 8.1 mph - N/A   Clear
4:56 AM 24.1 °F 18.2 °F 19.9 °F 84% 30.28 in 10.0 mi NE 4.6 mph - N/A   Clear
5:56 AM 24.1 °F 15.2 °F 19.9 °F 84% 30.28 in 10.0 mi NNE 8.1 mph - N/A   Clear
6:56 AM 24.1 °F 19.7 °F 19.9 °F 84% 30.30 in 10.0 mi NNE 3.5 mph - N/A   Clear
7:56 AM 24.1 °F 17.0 °F 21.0 °F 88% 30.33 in 10.0 mi NNE 5.8 mph - N/A   Clear
8:56 AM 28.0 °F 24.2 °F 23.0 °F 81% 30.33 in 10.0 mi NNE 3.5 mph - N/A   Clear
9:56 AM 36.0 °F 33.3 °F 24.1 °F 62% 30.29 in 10.0 mi SSE 3.5 mph - N/A   Clear
10:56 AM 41.0 °F - 23.0 °F 49% 30.30 in 10.0 mi Calm Calm - N/A   Clear
11:56 AM 48.0 °F - 23.0 °F 37% 30.25 in 10.0 mi South 4.6 mph - N/A   Clear
12:56 PM 57.0 °F - 24.1 °F 28% 30.18 in 10.0 mi South 6.9 mph - N/A   Clear
1:56 PM 64.0 °F - 17.1 °F 16% 30.12 in 10.0 mi SW 12.7 mph 19.6 mph N/A   Clear
2:56 PM 66.9 °F - 14.0 °F 13% 30.07 in 10.0 mi SSW 19.6 mph 25.3 mph N/A   Clear
3:56 PM 68.0 °F - 14.0 °F 12% 30.05 in 10.0 mi SSW 16.1 mph 19.6 mph N/A   Clear
4:56 PM 64.9 °F - 12.9 °F 13% 30.06 in 10.0 mi SW 12.7 mph - N/A   Clear
5:56 PM 59.0 °F - 12.0 °F 16% 30.07 in 10.0 mi SSW 9.2 mph - N/A   Clear
6:56 PM 53.1 °F - 12.9 °F 20% 30.08 in 10.0 mi SW 6.9 mph - N/A   Clear
7:56 PM 48.0 °F - 14.0 °F 26% 30.11 in 10.0 mi Calm Calm - N/A   Clear
8:56 PM 48.9 °F - 14.0 °F 25% 30.07 in 10.0 mi NW 3.5 mph - N/A   Clear
9:56 PM 41.0 °F 38.0 °F 14.0 °F 33% 30.07 in 10.0 mi East 4.6 mph - N/A   Clear
10:56 PM 39.0 °F 36.8 °F 12.9 °F 34% 30.05 in 10.0 mi East 3.5 mph - N/A   Clear
11:56 PM 39.9 °F 37.8 °F 14.0 °F 35% 30.00 in 10.0 mi SSE 3.5 mph - N/A   Clear